Valparaiso, IN

6:56 PM CDT on August 26, 2016 (GMT -0500)
Porter County Municipal

Weather History for KVPZ - February, 2014

Change the Weather History Date:

Saturday, February 22, 2014

  Actual Average Record
Temperature  
Mean Temperature 28 °F 30 °F  
Max Temperature 34 °F 38 °F 53 °F (2000)
Min Temperature 22 °F 22 °F 8 °F (2015)
Degree Days  
Heating Degree Days 37 35  
Month to date heating degree days 1072 844  
Since 1 July heating degree days 5144 4529  
Cooling Degree Days 0 0  
Month to date cooling degree days 0 0  
Year to date cooling degree days 0 0  
Moisture  
Dew Point 17 °F    
Average Humidity 63    
Maximum Humidity 78    
Minimum Humidity 49    
Precipitation  
Precipitation 0.00 in 0.05 in 0.27 in (2010)
Month to date precipitation 1.68 1.10  
Year to date precipitation 2.63 2.85  
Sea Level Pressure  
Sea Level Pressure 30.01 in    
Wind  
Wind Speed 10 mph (WSW)    
Max Wind Speed 18 mph    
Max Gust Speed 23 mph    
Visibility 10 miles    
Events      
T = Trace of Precipitation, MM = Missing Value Source: NWS Daily Summary

Daily Weather History Graph

Daily Weather History Graph

Search for Another Location

Airport or City:

Trip Planner

Search our weather history database for the weather conditions in past years. The results will help you decide how hot, cold, wet, or windy it might be!

Date:

Astronomy

Feb. 22, 2014 Rise Set
Actual Time 6:33 AM CST 5:30 PM CST
Civil Twilight 6:05 AM CST 5:58 PM CST
Nautical Twilight 5:33 AM CST 6:30 PM CST
Astronomical Twilight 5:01 AM CST 7:02 PM CST
Moon 12:29 AM CST (2/22) 10:39 AM CST (2/22)
Length of Visible Light 11h 53m
Length of Day
10h 57m
Waning Gibbous, 50% of the Moon is Illuminated
Feb 22
Waning Gibbous
Mar 1
New
Mar 8
First Quarter
Mar 16
Full
Mar 23
Last Quarter

Hourly Weather History & Observations

Time (CST) Temp. Windchill Dew Point Humidity Pressure Visibility Wind Dir Wind Speed Gust Speed Precip Events Conditions
12:53 AM 30.9 °F 21.2 °F 15.1 °F 52% 29.86 in 10.0 mi West 12.7 mph - N/A   Overcast
1:53 AM 27.0 °F 14.3 °F 10.0 °F 49% 29.89 in 10.0 mi West 17.3 mph - N/A   Clear
2:53 AM 25.0 °F 14.2 °F 12.0 °F 58% 29.90 in 10.0 mi West 11.5 mph - N/A   Clear
3:53 AM 25.0 °F 14.2 °F 14.0 °F 63% 29.93 in 10.0 mi WSW 11.5 mph - N/A   Clear
4:53 AM 24.1 °F 13.1 °F 16.0 °F 71% 29.95 in 10.0 mi WSW 11.5 mph - N/A   Clear
5:53 AM 21.9 °F 12.5 °F 16.0 °F 78% 29.97 in 10.0 mi West 8.1 mph - N/A   Clear
6:53 AM 24.1 °F 14.4 °F 15.1 °F 69% 29.99 in 10.0 mi WSW 9.2 mph - N/A   Clear
7:53 AM 26.1 °F 16.2 °F 17.1 °F 69% 30.01 in 10.0 mi West 10.4 mph - N/A   Clear
8:53 AM 28.0 °F 17.0 °F 14.0 °F 56% 30.04 in 10.0 mi West 13.8 mph - N/A   Mostly Cloudy
9:53 AM 30.0 °F 20.5 °F 15.1 °F 54% 30.05 in 10.0 mi West 11.5 mph - N/A   Mostly Cloudy
10:53 AM 32.0 °F 21.6 °F 16.0 °F 52% 30.04 in 10.0 mi SW 15.0 mph - N/A   Mostly Cloudy
11:53 AM 33.1 °F 24.9 °F 18.0 °F 54% 30.04 in 10.0 mi West 10.4 mph - N/A   Overcast
12:53 PM 33.1 °F 24.9 °F 18.0 °F 54% 30.02 in 10.0 mi WSW 10.4 mph - N/A   Partly Cloudy
1:53 PM 33.1 °F 23.0 °F 19.0 °F 56% 30.03 in 10.0 mi WSW 15.0 mph - N/A   Overcast
2:53 PM 33.1 °F 23.9 °F 16.0 °F 50% 30.02 in 10.0 mi SW 12.7 mph - N/A   Mostly Cloudy
3:53 PM 33.1 °F 26.1 °F 21.9 °F 64% 30.01 in 10.0 mi SW 8.1 mph - N/A   Overcast
4:53 PM 32.0 °F 24.8 °F 23.0 °F 69% 30.01 in 10.0 mi SSW 8.1 mph - N/A   Overcast
5:53 PM 30.9 °F 24.3 °F 24.1 °F 76% 30.03 in 10.0 mi SW 6.9 mph - N/A   Partly Cloudy
6:53 PM 30.9 °F 22.8 °F 23.0 °F 72% 30.05 in 10.0 mi WSW 9.2 mph - N/A   Partly Cloudy
7:53 PM 30.0 °F 22.4 °F 21.9 °F 72% 30.06 in 10.0 mi WSW 8.1 mph - N/A   Partly Cloudy
8:53 PM 28.9 °F 21.9 °F 19.9 °F 69% 30.07 in 10.0 mi West 6.9 mph - N/A   Partly Cloudy
9:53 PM 28.0 °F 18.6 °F 16.0 °F 61% 30.06 in 10.0 mi WNW 10.4 mph - N/A   Mostly Cloudy
10:53 PM 28.0 °F 22.8 °F 17.1 °F 63% 30.05 in 10.0 mi West 4.6 mph - N/A   Scattered Clouds
11:53 PM 26.1 °F 19.4 °F 18.0 °F 71% 30.08 in 10.0 mi West 5.8 mph - N/A   Clear